"startDT [UTC]","vpos","CH4 [ppm]","stdev(CH4) [ppm]","CO2 [ppm]","stdev(CO2) [ppm]","H2O_reported [%]","stdev(H2O_reported)","CavityPressure [torr]","CavityTemp [C]","OutletValve","CH4_dry [ppm]","CO2_dry [ppm]","DasTemp [C]","EtalonTemp [C]","WarmBoxTemp [C]","MPVPosition","T_ECpre [C]","T_EC1 [C]","T_EC2 [C]","p_inlet [hPa]","p_in [hPa]","p_out [hPa]","T_inlet [C]","RH_inlet [%]","dwpt_inlet [C]","T_vent [C]","RH_vent [%]","dwpt_vent [C]","flow_vent [l min-1]","flow_inlet [l min-1]","dwpt_sample [C]","T_room [C]"
2015-08-27 00:00:00,0.0,1.94242,0.00080,379.850,0.327,1.0557,0.0069,139.999,45.000,31177.17008,1.96331,384.838,34.945,45.068,45.000,0.00,0.10,-272.74,-272.80,-15,503,-938,25.2,25.4,4.0,24.9,26.4,4.3,5.73,1.87,4.2,28.9
2015-08-27 00:01:00,0.0,1.94218,0.00064,380.058,0.192,1.0453,0.0054,140.000,45.000,31177.44172,1.96284,385.003,34.940,45.068,45.000,0.00,0.10,-272.73,-272.80,-15,503,-938,25.2,25.2,3.8,24.9,26.2,4.2,5.73,1.86,4.2,28.9
2015-08-27 00:02:00,0.0,1.94225,0.00155,379.939,0.325,1.0478,0.0092,139.999,45.000,31175.00959,1.96302,384.899,34.948,45.068,45.000,0.00,0.10,-272.73,-272.80,-16,503,-938,25.2,25.2,3.9,24.9,26.2,4.2,5.73,1.87,4.2,28.9
2015-08-27 00:03:00,0.0,1.94094,0.00084,379.899,0.157,1.0455,0.0050,140.000,45.000,31177.10643,1.96164,384.838,34.939,45.068,45.000,0.00,0.10,-272.74,-272.80,-15,503,-938,25.2,25.1,3.8,24.9,26.1,4.1,5.73,1.88,4.2,28.9
2015-08-27 00:04:00,0.0,1.93852,0.00109,380.596,0.521,1.0210,0.0165,140.002,45.000,31175.94084,1.95872,385.412,34.938,45.068,45.000,0.00,0.10,-272.74,-272.80,-16,503,-938,25.2,24.5,3.5,24.9,25.6,3.9,5.73,1.93,4.2,28.9
2015-08-27 00:05:00,0.0,1.93855,0.00040,380.914,0.118,1.0127,0.0034,139.999,45.000,31175.21166,1.95850,385.707,34.938,45.068,45.000,0.00,0.10,-272.74,-272.80,-16,503,-938,25.2,24.3,3.4,24.9,25.3,3.7,5.73,1.97,4.2,28.9
2015-08-27 00:06:00,0.0,1.93988,0.00052,380.719,0.076,1.0199,0.0026,139.997,45.000,31174.44424,1.95994,385.548,34.936,45.068,45.000,0.00,0.10,-272.74,-272.80,-15,503,-938,25.2,24.6,3.5,24.9,25.4,3.7,5.73,1.99,4.2,28.9
2015-08-27 00:07:00,0.0,1.93999,0.00041,380.635,0.067,1.0246,0.0029,139.999,45.000,31175.22040,1.96025,385.483,34.933,45.068,45.000,0.00,0.10,-272.74,-272.80,-16,503,-938,25.2,24.6,3.6,24.9,25.5,3.8,5.73,2.00,4.2,28.9
2015-08-27 00:08:00,0.0,1.93938,0.00067,380.633,0.104,1.0236,0.0041,140.001,45.000,31176.01275,1.95953,385.477,34.938,45.068,45.000,0.00,0.10,-272.74,-272.80,-16,503,-939,25.2,24.6,3.5,24.9,25.5,3.8,5.73,1.98,4.2,28.9
2015-08-27 00:09:00,0.0,1.94364,0.00173,380.572,0.304,1.0267,0.0068,139.997,45.000,31175.13236,1.96375,385.421,34.939,45.068,45.000,0.00,0.10,-272.73,-272.80,-16,503,-938,25.2,24.7,3.6,24.9,25.7,3.9,5.73,1.96,4.2,28.9
2015-08-27 00:10:00,0.0,1.94159,0.00111,381.013,0.176,1.0090,0.0061,139.999,45.000,31176.55960,1.96170,385.793,34.939,45.068,45.000,0.00,0.10,-272.74,-272.80,-16,503,-938,25.2,24.3,3.3,24.9,25.2,3.6,5.73,1.93,4.2,28.9
2015-08-27 00:11:00,0.0,1.93930,0.00065,380.831,0.132,1.0130,0.0040,140.001,45.000,31177.46375,1.95927,385.631,34.941,45.068,45.000,0.00,0.10,-272.74,-272.80,-16,503,-938,25.2,24.4,3.4,24.9,25.2,3.6,5.73,1.89,4.2,28.9
2015-08-27 00:12:00,0.0,1.93870,0.00082,380.545,0.093,1.0231,0.0036,140.001,45.000,31177.00949,1.95894,385.384,34.937,45.068,45.000,0.00,0.10,-272.73,-272.79,-16,502,-938,25.2,24.6,3.5,24.9,25.5,3.8,5.73,1.86,4.2,28.9
2015-08-27 00:13:00,0.0,1.93828,0.00110,380.554,0.203,1.0174,0.0069,139.998,45.000,31175.21492,1.95839,385.365,34.929,45.068,45.000,0.00,0.10,-272.73,-272.80,-16,503,-939,25.2,24.5,3.5,24.9,25.4,3.7,5.73,1.86,4.2,28.9
2015-08-27 00:14:00,0.0,1.93802,0.00105,380.732,0.230,1.0099,0.0092,139.997,45.000,31175.21372,1.95782,385.506,34.936,45.068,45.000,0.00,0.10,-272.73,-272.80,-16,503,-939,25.2,24.3,3.3,24.9,25.3,3.6,5.73,1.88,4.2,28.9
2015-08-27 00:15:00,0.0,1.94015,0.00037,380.759,0.115,1.0067,0.0037,139.999,45.000,31175.87323,1.95999,385.525,34.928,45.068,45.000,0.00,0.10,-272.73,-272.79,-16,503,-939,25.2,24.2,3.3,24.9,25.1,3.5,5.73,1.91,4.2,28.9
2015-08-27 00:16:00,0.0,1.93916,0.00076,380.942,0.349,0.9980,0.0132,140.000,45.000,31175.14073,1.95883,385.665,34.935,45.068,45.000,0.00,0.10,-272.73,-272.80,-16,503,-938,25.2,24.0,3.2,24.9,24.9,3.4,5.73,1.94,4.2,28.9
2015-08-27 00:17:00,0.0,1.93808,0.00066,381.344,0.277,0.9823,0.0140,139.997,45.000,31173.53743,1.95750,385.980,34.936,45.068,45.000,0.00,0.10,-272.74,-272.80,-16,503,-939,25.2,23.5,2.9,24.9,24.7,3.3,5.73,1.97,4.2,28.9
2015-08-27 00:18:00,0.0,1.93684,0.00079,381.504,0.158,0.9665,0.0075,139.999,45.000,31175.88426,1.95585,386.083,34.937,45.068,45.000,0.00,0.10,-272.74,-272.80,-16,503,-939,25.2,23.2,2.7,24.9,24.2,3.0,5.73,2.00,4.2,28.9
2015-08-27 00:19:00,0.0,1.93608,0.00074,381.587,0.183,0.9613,0.0087,139.998,45.000,31177.16751,1.95501,386.133,34.938,45.068,45.000,0.00,0.10,-272.74,-272.80,-16,503,-938,25.2,23.1,2.6,24.9,24.0,2.9,5.73,2.00,4.2,28.9
2015-08-27 00:20:00,0.0,1.93517,0.00064,381.905,0.167,0.9560,0.0091,139.999,45.000,31176.55243,1.95400,386.425,34.951,45.068,45.000,0.00,0.10,-272.74,-272.80,-16,503,-939,25.2,22.9,2.6,24.9,23.9,2.9,5.73,1.98,4.2,28.9
2015-08-27 00:21:00,0.0,1.93506,0.00068,382.053,0.079,0.9481,0.0043,139.998,45.000,31176.76311,1.95363,386.546,34.976,45.068,45.000,0.00,0.10,-272.74,-272.80,-16,503,-939,25.2,22.8,2.5,24.9,23.7,2.7,5.73,1.95,4.2,28.9
2015-08-27 00:22:00,0.0,1.93537,0.00047,381.935,0.166,0.9550,0.0085,140.000,45.000,31175.67178,1.95416,386.456,34.953,45.067,45.000,0.00,0.10,-272.73,-272.80,-16,503,-939,25.2,22.9,2.6,24.9,23.8,2.8,5.73,1.91,4.2,28.9
2015-08-27 00:23:00,0.0,1.93562,0.00053,381.860,0.142,0.9550,0.0066,140.000,45.000,31178.35574,1.95435,386.385,34.987,45.068,45.000,0.00,0.10,-272.74,-272.80,-16,503,-939,25.2,23.0,2.6,24.9,23.8,2.8,5.73,1.88,4.2,28.9
2015-08-27 00:24:00,0.0,1.93497,0.00075,382.154,0.251,0.9412,0.0115,139.998,45.000,31177.38793,1.95347,386.607,34.973,45.067,45.000,0.00,0.10,-272.74,-272.80,-16,503,-939,25.2,22.6,2.3,24.9,23.6,2.7,5.73,1.86,4.2,28.9
2015-08-27 00:25:00,0.0,1.93446,0.00042,382.234,0.183,0.9419,0.0110,140.000,45.000,31178.10527,1.95297,386.697,34.989,45.067,45.000,0.00,0.10,-272.73,-272.79,-16,503,-939,25.2,22.6,2.3,24.9,23.4,2.6,5.73,1.86,4.2,28.9
2015-08-27 00:26:00,0.0,1.93441,0.00054,382.385,0.216,0.9338,0.0138,139.997,45.000,31177.81289,1.95270,386.810,34.996,45.067,45.000,0.00,0.10,-272.73,-272.80,-16,502,-939,25.2,22.4,2.2,24.9,23.4,2.6,5.73,1.88,4.2,28.9
2015-08-27 00:27:00,0.0,1.93516,0.00051,382.088,0.218,0.9473,0.0134,140.001,45.000,31179.06355,1.95372,386.582,34.995,45.067,45.000,0.00,0.10,-272.74,-272.80,-16,503,-939,25.2,22.9,2.5,24.9,23.5,2.6,5.73,1.92,4.2,28.9
2015-08-27 00:28:00,0.0,1.93566,0.00047,381.684,0.224,0.9757,0.0125,140.000,45.000,31177.20061,1.95485,386.303,34.985,45.067,45.000,0.00,0.10,-272.73,-272.80,-16,502,-939,25.2,23.4,2.8,24.9,24.3,3.1,5.73,1.96,4.2,28.9
2015-08-27 00:29:00,0.0,1.93560,0.00035,382.095,0.125,0.9513,0.0074,140.001,45.000,31177.35098,1.95428,386.599,34.993,45.067,45.000,0.00,0.10,-272.73,-272.79,-16,502,-939,25.2,22.8,2.5,24.9,23.8,2.8,5.73,1.98,4.2,28.9
2015-08-27 00:30:00,0.0,1.93537,0.00054,382.280,0.077,0.9438,0.0049,139.997,45.000,31176.48809,1.95391,386.750,34.995,45.068,45.000,0.00,0.10,-272.73,-272.80,-16,502,-939,25.2,22.7,2.4,24.9,23.6,2.7,5.73,2.00,4.2,28.9
2015-08-27 00:31:00,0.0,1.93478,0.00048,382.438,0.093,0.9352,0.0068,139.999,45.000,31176.47827,1.95315,386.869,34.990,45.068,45.000,0.00,0.10,-272.75,-272.81,-16,503,-939,25.2,22.4,2.2,24.9,23.4,2.6,5.73,1.99,4.2,28.9
2015-08-27 00:32:00,0.0,1.93464,0.00054,382.487,0.107,0.9323,0.0073,140.002,45.000,31176.75770,1.95292,386.907,34.996,45.068,45.000,0.00,0.10,-272.74,-272.80,-16,502,-939,25.2,22.5,2.3,24.9,23.3,2.5,5.73,1.98,4.2,28.9
2015-08-27 00:33:00,0.0,1.93507,0.00049,382.221,0.224,0.9581,0.0134,139.996,45.000,31175.10889,1.95386,386.761,34.979,45.068,45.000,0.00,0.10,-272.73,-272.80,-16,502,-939,25.2,23.0,2.6,24.9,23.8,2.8,5.73,1.94,4.2,28.9
2015-08-27 00:34:00,0.0,1.93474,0.00038,382.498,0.092,0.9400,0.0060,139.999,45.000,31174.49860,1.95321,386.953,34.979,45.068,45.000,0.00,0.10,-272.74,-272.80,-16,502,-939,25.2,22.6,2.3,24.9,23.5,2.6,5.73,1.90,4.2,28.9
2015-08-27 00:35:00,0.0,1.93427,0.00040,382.655,0.086,0.9273,0.0074,139.999,45.000,31176.14765,1.95246,387.053,34.985,45.068,45.000,0.00,0.10,-272.73,-272.80,-16,502,-939,25.2,22.3,2.1,24.9,23.3,2.5,5.73,1.87,4.2,28.9
2015-08-27 00:36:00,0.0,1.93484,0.00034,382.564,0.063,0.9322,0.0048,140.002,45.000,31175.80575,1.95310,386.981,34.956,45.068,45.000,0.00,0.10,-272.73,-272.79,-16,502,-939,25.2,22.4,2.2,24.9,23.2,2.5,5.73,1.86,4.2,28.9
2015-08-27 00:37:00,0.0,1.93481,0.00045,382.647,0.062,0.9267,0.0041,139.998,45.000,31175.20059,1.95300,387.038,34.944,45.068,45.000,0.00,0.10,-272.74,-272.80,-16,502,-939,25.2,22.2,2.1,24.9,23.2,2.4,5.73,1.87,4.2,28.9
2015-08-27 00:38:00,0.0,1.93482,0.00048,382.576,0.116,0.9249,0.0058,140.001,45.000,31176.65818,1.95292,386.963,34.938,45.068,45.000,0.00,0.10,-272.74,-272.80,-16,502,-939,25.2,22.2,2.1,24.9,23.1,2.4,5.73,1.89,4.2,28.9
2015-08-27 00:39:00,0.0,1.93556,0.00046,382.396,0.164,0.9340,0.0098,139.999,45.000,31177.14752,1.95387,386.828,34.938,45.068,45.000,0.00,0.10,-272.73,-272.79,-16,502,-939,25.2,22.5,2.3,24.9,23.2,2.4,5.73,1.92,4.2,28.9
2015-08-27 00:40:00,0.0,1.93602,0.00045,382.253,0.115,0.9382,0.0068,140.000,45.000,31175.51643,1.95442,386.698,34.939,45.068,45.000,0.00,0.10,-272.74,-272.80,-16,502,-939,25.2,22.5,2.3,24.9,23.4,2.6,5.73,1.96,4.2,28.9
2015-08-27 00:41:00,0.0,1.93594,0.00065,382.496,0.189,0.9209,0.0104,140.003,45.000,31174.45991,1.95399,386.858,34.961,45.068,45.000,0.00,0.10,-272.74,-272.81,-16,502,-939,25.2,22.2,2.1,24.9,23.0,2.3,5.73,2.00,4.2,28.9
2015-08-27 00:42:00,0.0,1.93685,0.00046,381.979,0.160,0.9448,0.0098,139.999,45.000,31175.10912,1.95543,386.453,34.973,45.068,45.000,0.00,0.10,-272.73,-272.80,-16,502,-939,25.2,22.7,2.4,24.9,23.5,2.6,5.73,2.00,4.2,28.9
2015-08-27 00:43:00,0.0,1.93663,0.00036,382.189,0.117,0.9269,0.0057,139.998,45.000,31174.22791,1.95483,386.574,34.992,45.068,45.000,0.00,0.10,-272.73,-272.80,-16,502,-939,25.2,22.2,2.1,24.9,23.2,2.4,5.73,1.99,4.2,28.9
2015-08-27 00:44:00,0.0,1.93594,0.00040,382.418,0.118,0.9157,0.0075,139.997,45.000,31174.15907,1.95392,386.757,34.990,45.068,45.000,0.00,0.10,-272.74,-272.81,-16,502,-939,25.2,22.0,2.0,24.9,22.9,2.3,5.73,1.96,4.2,28.9
2015-08-27 00:45:00,0.0,1.93591,0.00044,382.130,0.226,0.9301,0.0134,139.998,45.000,31177.09534,1.95413,386.534,34.998,45.068,45.000,0.00,0.10,-272.74,-272.80,-16,502,-939,25.2,22.4,2.2,24.9,23.1,2.4,5.73,1.92,4.2,28.9
2015-08-27 00:46:00,0.0,1.93603,0.00042,381.953,0.217,0.9369,0.0129,139.999,45.000,31176.41291,1.95443,386.393,35.000,45.068,45.000,0.00,0.10,-272.73,-272.79,-16,502,-939,25.2,22.6,2.4,24.9,23.4,2.5,5.73,1.89,4.2,28.9
2015-08-27 00:47:00,0.0,1.93575,0.00031,381.822,0.159,0.9431,0.0088,140.000,45.000,31175.30684,1.95431,386.282,35.003,45.067,45.000,0.00,0.10,-272.74,-272.80,-16,502,-939,25.2,22.6,2.3,24.9,23.5,2.6,5.73,1.86,4.2,28.9
2015-08-27 00:48:00,0.0,1.93612,0.00074,382.454,0.123,0.8974,0.0079,139.999,45.000,31176.01620,1.95369,386.702,35.014,45.067,45.000,0.00,0.10,-272.74,-272.80,-16,503,-939,25.2,21.6,1.7,24.9,22.6,2.1,5.73,1.86,4.2,28.9
2015-08-27 00:49:00,0.0,1.93752,0.00075,382.210,0.183,0.9115,0.0074,140.001,45.000,31177.47542,1.95535,386.524,35.038,45.067,45.000,0.00,0.10,-272.73,-272.79,-16,502,-939,25.2,21.9,1.9,24.9,22.7,2.2,5.73,1.88,4.2,28.9
2015-08-27 00:50:00,0.0,1.93708,0.00071,382.360,0.311,0.9094,0.0168,139.997,45.000,31174.77931,1.95497,386.665,35.060,45.067,45.000,0.00,0.10,-272.74,-272.80,-16,502,-939,25.2,21.9,1.9,24.9,22.7,2.1,5.73,1.91,4.2,28.9
2015-08-27 00:51:00,0.0,1.93668,0.00075,382.030,0.309,0.9298,0.0181,140.000,45.000,31176.34846,1.95492,386.437,35.064,45.067,45.000,0.00,0.10,-272.74,-272.80,-16,502,-939,25.2,22.4,2.2,24.9,23.1,2.4,5.73,1.95,4.2,28.9
2015-08-27 00:52:00,0.0,1.93644,0.00055,382.023,0.384,0.9405,0.0211,139.999,45.000,31176.04409,1.95495,386.465,35.063,45.067,45.000,0.00,0.10,-272.74,-272.79,-16,502,-939,25.2,22.5,2.3,24.9,23.5,2.7,5.73,1.99,4.2,28.9
2015-08-27 00:53:00,0.0,1.93681,0.00048,382.184,0.315,0.9276,0.0186,140.001,45.000,31176.98340,1.95499,386.585,35.063,45.067,45.000,0.00,0.10,-272.73,-272.79,-16,503,-939,25.2,22.4,2.2,24.9,23.0,2.4,5.73,2.01,4.2,28.9
2015-08-27 00:54:00,0.0,1.93632,0.00047,381.886,0.179,0.9513,0.0109,139.999,45.000,31177.61718,1.95505,386.381,35.103,45.067,45.000,0.00,0.10,-272.74,-272.81,-16,503,-939,25.2,22.7,2.4,24.9,23.7,2.8,5.73,2.00,4.2,29.0
2015-08-27 00:55:00,0.0,1.93618,0.00072,382.326,0.362,0.9113,0.0199,139.998,45.000,31177.45614,1.95410,386.639,35.122,45.068,45.000,0.00,0.10,-272.74,-272.80,-16,502,-939,25.2,21.9,1.9,24.9,22.9,2.3,5.73,1.97,4.2,28.9
2015-08-27 00:56:00,0.0,1.93595,0.00041,382.458,0.219,0.9064,0.0131,140.002,45.000,31178.36921,1.95365,386.752,35.125,45.068,45.000,0.00,0.10,-272.73,-272.80,-16,502,-939,25.2,21.8,1.8,24.9,22.7,2.2,5.73,1.93,4.2,28.9
2015-08-27 00:57:00,0.0,1.93653,0.00045,382.269,0.170,0.9202,0.0112,140.000,45.000,31179.81560,1.95462,386.623,35.117,45.067,45.000,0.00,0.10,-272.74,-272.80,-16,502,-939,25.2,22.0,2.0,24.9,22.9,2.3,5.73,1.88,4.2,28.9
2015-08-27 00:58:00,0.0,1.93611,0.00050,382.392,0.241,0.9157,0.0153,139.997,45.000,31177.00282,1.95404,386.734,35.104,45.068,45.000,0.00,0.10,-272.74,-272.80,-16,502,-939,25.2,22.0,2.0,24.9,22.8,2.2,5.73,1.86,4.2,28.9
2015-08-27 00:59:00,0.0,1.93569,0.00034,382.483,0.195,0.9071,0.0128,140.000,45.000,31176.08183,1.95352,386.776,35.092,45.067,45.000,0.00,0.10,-272.74,-272.80,-16,503,-939,25.2,21.7,1.8,24.9,22.7,2.2,5.73,1.86,4.2,28.9
2015-08-27 01:00:00,0.0,1.93559,0.00060,382.457,0.221,0.9138,0.0149,139.999,45.000,31177.38152,1.95355,386.782,35.102,45.068,45.000,0.00,0.10,-272.74,-272.80,-16,502,-939,25.2,21.9,1.9,24.9,22.7,2.2,5.73,1.87,4.2,28.9
2015-08-27 01:01:00,0.0,1.93526,0.00058,382.782,0.058,0.8960,0.0055,139.999,45.000,31178.28010,1.95278,387.023,35.104,45.068,45.000,0.00,0.10,-272.74,-272.80,-16,502,-939,25.2,21.5,1.6,24.9,22.5,2.1,5.73,1.91,4.2,28.9
2015-08-27 01:02:00,0.0,1.93499,0.00043,382.967,0.073,0.8878,0.0061,139.998,45.000,31176.85692,1.95239,387.174,35.101,45.068,45.000,0.00,0.10,-272.74,-272.80,-16,503,-939,25.2,21.3,1.5,24.9,22.2,1.8,5.73,1.96,4.2,28.9
2015-08-27 01:03:00,0.0,1.93475,0.00045,382.677,0.179,0.9214,0.0143,140.000,45.000,31177.45517,1.95286,387.039,35.102,45.068,45.000,0.00,0.33,-270.66,-270.96,-16,503,-939,25.2,22.1,2.0,24.9,22.7,2.2,5.42,2.05,-2.6,29.0
2015-08-27 01:04:00,0.0,1.93441,0.00036,383.084,0.099,0.8923,0.0091,139.999,45.000,31176.16401,1.95188,387.315,35.106,45.068,45.000,0.00,0.10,-272.74,-272.80,-16,503,-939,25.2,21.4,1.6,24.9,22.5,2.1,5.73,2.00,4.2,29.0
2015-08-27 01:05:00,0.0,1.93441,0.00035,383.045,0.179,0.8847,0.0106,140.000,45.000,31178.10725,1.95171,387.245,35.093,45.068,45.000,0.00,0.10,-272.74,-272.80,-16,503,-939,25.2,21.3,1.5,24.9,22.0,1.8,5.73,1.99,4.2,28.9
2015-08-27 01:06:00,0.0,1.93407,0.00053,382.769,0.184,0.9094,0.0098,139.997,45.000,31178.50656,1.95188,387.073,35.067,45.068,45.000,0.00,0.10,-272.73,-272.80,-16,503,-939,25.3,21.8,1.9,24.9,22.6,2.1,5.73,1.96,4.2,29.0
2015-08-27 01:07:00,0.0,1.93448,0.00029,382.724,0.178,0.9178,0.0128,140.002,45.000,31177.33337,1.95246,387.073,35.077,45.068,45.000,0.00,0.10,-272.74,-272.80,-16,503,-939,25.2,22.0,2.0,24.9,22.8,2.2,5.73,1.92,4.2,29.0
2015-08-27 01:08:00,0.0,1.93488,0.00045,382.688,0.218,0.9205,0.0178,139.998,45.000,31176.80332,1.95290,387.054,35.072,45.068,45.000,0.00,0.10,-272.73,-272.80,-16,502,-939,25.2,22.2,2.1,24.9,22.8,2.3,5.73,1.88,4.2,29.0
2015-08-27 01:09:00,0.0,1.93493,0.00035,382.620,0.192,0.9252,0.0162,139.998,45.000,31176.21606,1.95309,387.004,35.117,45.068,45.000,0.00,0.10,-272.73,-272.79,-16,503,-939,25.2,22.2,2.1,24.9,23.1,2.5,5.73,1.85,4.2,28.9
2015-08-27 01:10:00,0.0,1.93511,0.00045,382.789,0.199,0.9123,0.0132,139.999,45.000,31177.56135,1.95302,387.110,35.118,45.068,45.000,0.00,0.10,-272.73,-272.80,-16,503,-939,25.2,21.8,1.8,24.9,22.8,2.2,5.73,1.86,4.2,29.0
2015-08-27 01:11:00,0.0,1.93466,0.00062,382.684,0.235,0.9185,0.0176,139.997,45.000,31176.82676,1.95267,387.039,35.124,45.068,45.000,0.00,0.10,-272.74,-272.80,-16,503,-939,25.2,22.0,2.0,25.0,22.7,2.2,5.73,1.88,4.2,28.9
2015-08-27 01:12:00,0.0,1.93423,0.00038,382.882,0.084,0.9050,0.0066,139.997,45.000,31175.54288,1.95197,387.170,35.126,45.068,45.000,0.00,0.10,-272.74,-272.80,-16,503,-939,25.2,21.7,1.8,24.9,22.6,2.2,5.73,1.92,4.2,29.0
2015-08-27 01:13:00,0.0,1.93500,0.00048,383.021,0.075,0.8985,0.0042,140.001,45.000,31177.11191,1.95258,387.280,35.128,45.068,45.000,0.00,0.10,-272.74,-272.80,-16,503,-939,25.2,21.5,1.7,25.0,22.4,2.0,5.73,1.96,4.2,29.0
2015-08-27 01:14:00,0.0,1.93509,0.00036,382.848,0.085,0.9095,0.0060,139.998,45.000,31176.76087,1.95292,387.159,35.125,45.068,45.000,0.00,0.10,-272.74,-272.80,-16,503,-939,25.3,21.8,1.9,24.9,22.6,2.1,5.73,1.99,4.2,28.9
2015-08-27 01:15:00,0.0,1.93505,0.00039,383.035,0.075,0.8985,0.0052,139.997,45.000,31178.04167,1.95265,387.293,35.118,45.068,45.000,0.00,0.10,-272.74,-272.80,-16,503,-939,25.2,21.5,1.7,25.0,22.4,2.0,5.73,2.01,4.2,28.9
2015-08-27 01:16:00,0.0,1.93467,0.00054,382.798,0.159,0.9193,0.0120,139.999,45.000,31178.25656,1.95270,387.156,35.113,45.068,45.000,0.00,0.10,-272.73,-272.79,-16,503,-939,25.3,22.0,2.0,25.0,22.7,2.2,5.73,1.99,4.2,29.0
2015-08-27 01:17:00,0.0,1.93431,0.00049,382.714,0.179,0.9259,0.0133,140.000,45.000,31180.13184,1.95251,387.103,35.093,45.068,45.000,0.00,0.10,-272.74,-272.80,-16,503,-939,25.2,22.2,2.1,25.0,23.0,2.4,5.73,1.94,4.2,29.0
2015-08-27 01:18:00,0.0,1.93479,0.00048,383.130,0.043,0.8941,0.0039,140.001,45.000,31179.72629,1.95230,387.369,35.111,45.068,45.000,0.00,0.10,-272.74,-272.80,-16,503,-939,25.3,21.4,1.6,25.0,22.4,2.0,5.73,1.90,4.2,29.0
2015-08-27 01:19:00,0.0,1.93496,0.00035,382.791,0.150,0.9169,0.0125,139.998,45.000,31179.53929,1.95289,387.139,35.125,45.068,45.000,0.00,0.10,-272.73,-272.80,-16,503,-939,25.3,22.0,2.0,25.0,22.6,2.2,5.73,1.87,4.2,29.0
2015-08-27 01:20:00,0.0,1.93482,0.00045,382.842,0.150,0.9113,0.0124,139.999,45.000,31179.13557,1.95270,387.161,35.126,45.068,45.000,0.00,0.10,-272.73,-272.80,-16,503,-939,25.3,21.8,1.9,25.0,22.8,2.3,5.73,1.85,4.2,28.9
2015-08-27 01:21:00,0.0,1.93464,0.00061,383.018,0.134,0.8992,0.0100,139.998,45.000,31179.70507,1.95229,387.281,35.125,45.068,45.000,0.00,0.10,-272.73,-272.80,-16,503,-939,25.3,21.5,1.7,25.0,22.3,2.0,5.73,1.86,4.2,29.0
2015-08-27 01:22:00,0.0,1.93486,0.00077,382.691,0.247,0.9308,0.0215,139.999,45.000,31177.22285,1.95305,387.105,35.128,45.068,45.000,0.00,0.10,-272.74,-272.80,-16,503,-939,25.3,22.3,2.2,25.0,23.0,2.4,5.73,1.90,4.2,29.0
2015-08-27 01:23:00,0.0,1.93487,0.00030,383.095,0.144,0.9006,0.0104,140.000,45.000,31175.40019,1.95253,387.366,35.128,45.068,45.000,0.00,0.10,-272.73,-272.80,-16,503,-939,25.3,21.6,1.8,25.0,22.5,2.1,5.73,1.95,4.2,29.0
2015-08-27 01:24:00,0.0,1.93469,0.00035,382.604,0.225,0.9432,0.0198,139.999,45.000,31177.72445,1.95318,387.080,35.136,45.068,45.000,0.00,0.10,-272.74,-272.80,-16,503,-939,25.3,22.7,2.5,25.0,23.1,2.5,5.73,1.99,4.2,29.0
2015-08-27 01:25:00,0.0,1.93453,0.00039,382.610,0.250,0.9505,0.0187,139.998,45.000,31179.07521,1.95322,387.117,35.171,45.068,45.000,0.00,0.10,-272.74,-272.80,-16,503,-939,25.3,22.8,2.5,25.0,23.7,2.8,5.73,2.00,4.3,28.9
2015-08-27 01:26:00,0.0,1.93481,0.00040,382.643,0.138,0.9491,0.0109,139.997,45.000,31179.46520,1.95343,387.146,35.177,45.067,45.000,0.00,0.10,-272.74,-272.80,-16,503,-939,25.3,22.8,2.5,25.0,23.5,2.7,5.73,2.00,4.3,29.0
2015-08-27 01:27:00,0.0,1.93532,0.00058,382.783,0.208,0.9357,0.0192,140.000,45.000,31179.56281,1.95364,387.219,35.136,45.067,45.000,0.00,0.10,-272.74,-272.80,-16,503,-939,25.3,22.4,2.2,25.0,23.4,2.7,5.73,1.97,4.3,29.0
2015-08-27 01:28:00,0.0,1.93533,0.00027,382.727,0.142,0.9383,0.0106,139.997,45.000,31180.63358,1.95379,387.179,35.126,45.068,45.000,0.00,0.10,-272.74,-272.80,-16,503,-939,25.3,22.5,2.3,25.0,23.2,2.6,5.73,1.92,4.2,29.0
2015-08-27 01:29:00,0.0,1.93525,0.00048,382.574,0.113,0.9508,0.0121,139.999,45.000,31181.86514,1.95389,387.083,35.126,45.068,45.000,0.00,0.10,-272.73,-272.80,-16,503,-939,25.3,22.7,2.4,25.0,23.6,2.8,5.73,1.87,4.3,29.0
2015-08-27 01:30:00,0.0,1.93568,0.00042,383.019,0.056,0.9058,0.0062,139.998,45.000,31180.40742,1.95343,387.313,35.125,45.068,45.000,0.00,0.10,-272.73,-272.79,-16,503,-939,25.3,21.7,1.8,25.0,22.7,2.2,5.73,1.85,4.3,29.0
2015-08-27 01:31:00,0.0,1.93529,0.00037,382.684,0.207,0.9411,0.0212,139.997,45.000,31181.92398,1.95375,387.149,35.134,45.068,45.000,0.00,0.10,-272.74,-272.80,-16,503,-939,25.3,22.6,2.4,25.0,23.0,2.4,5.73,1.85,4.3,29.0
2015-08-27 01:32:00,0.0,1.93524,0.00043,382.911,0.208,0.9269,0.0170,139.999,45.000,31182.97185,1.95341,387.306,35.157,45.068,45.000,0.00,0.10,-272.74,-272.80,-16,503,-939,25.3,22.2,2.1,25.0,23.2,2.5,5.73,1.89,4.3,29.0
2015-08-27 01:33:00,0.0,1.93540,0.00045,382.934,0.168,0.9274,0.0116,139.999,45.000,31183.37053,1.95363,387.331,35.171,45.068,45.000,0.00,0.10,-272.73,-272.80,-16,503,-939,25.3,22.2,2.1,25.0,23.0,2.4,5.73,1.93,4.3,29.0
2015-08-27 01:34:00,0.0,1.93566,0.00040,382.947,0.175,0.9275,0.0126,139.998,45.000,31182.48202,1.95385,387.349,35.187,45.068,45.000,0.00,0.10,-272.74,-272.80,-16,503,-939,25.3,22.2,2.2,25.0,22.9,2.4,5.73,1.97,4.3,29.0
2015-08-27 01:35:00,0.0,1.93564,0.00043,382.748,0.153,0.9419,0.0102,140.000,45.000,31183.95884,1.95415,387.217,35.190,45.068,45.000,0.00,0.10,-272.74,-272.80,-16,503,-939,25.3,22.5,2.3,25.0,23.3,2.6,5.73,2.00,4.3,29.1
2015-08-27 01:36:00,0.0,1.93572,0.00050,382.790,0.095,0.9369,0.0070,139.998,45.000,31185.16066,1.95405,387.234,35.197,45.067,45.000,0.00,0.10,-272.73,-272.80,-16,503,-939,25.3,22.5,2.3,25.0,23.2,2.6,5.73,2.00,4.3,29.1
2015-08-27 01:37:00,0.0,1.93598,0.00031,382.682,0.081,0.9459,0.0050,139.996,45.000,31185.76891,1.95458,387.171,35.202,45.067,45.000,0.00,0.10,-272.73,-272.80,-16,503,-939,25.3,22.6,2.4,25.0,23.4,2.6,5.73,1.97,4.3,29.0
2015-08-27 01:38:00,0.0,1.93609,0.00045,382.746,0.104,0.9429,0.0074,139.999,45.000,31186.53441,1.95460,387.221,35.191,45.067,45.000,0.00,0.10,-272.73,-272.81,-16,503,-939,25.3,22.6,2.4,25.0,23.4,2.7,5.73,1.93,4.3,29.0
2015-08-27 01:39:00,0.0,1.93555,0.00039,382.734,0.242,0.9474,0.0128,139.998,45.000,31187.23178,1.95416,387.224,35.191,45.068,45.000,0.00,0.10,-272.73,-272.80,-16,503,-939,25.3,22.6,2.4,25.0,23.5,2.7,5.73,1.88,4.3,29.1
2015-08-27 01:40:00,0.0,1.93571,0.00053,382.815,0.193,0.9481,0.0150,140.001,45.000,31187.95886,1.95431,387.314,35.185,45.067,45.000,0.00,0.10,-272.72,-272.80,-16,503,-939,25.3,22.7,2.5,25.0,23.4,2.7,5.73,1.86,4.3,29.1
2015-08-27 01:41:00,0.0,1.93571,0.00065,382.894,0.102,0.9477,0.0087,140.000,45.000,31187.12121,1.95430,387.396,35.183,45.068,45.000,0.00,0.10,-272.74,-272.80,-16,503,-939,25.3,22.8,2.5,25.0,23.5,2.7,5.73,1.85,4.3,29.0
2015-08-27 01:42:00,0.0,1.93639,0.00046,382.900,0.195,0.9633,0.0153,140.000,45.000,31186.93104,1.95533,387.472,35.187,45.068,45.000,0.00,0.10,-272.74,-272.80,-16,503,-939,25.3,23.1,2.7,25.0,23.8,2.9,5.73,1.87,4.3,29.1
2015-08-27 01:43:00,0.0,1.93700,0.00054,383.137,0.154,0.9461,0.0136,139.997,45.000,31187.57959,1.95555,387.631,35.189,45.068,45.000,0.00,0.10,-272.73,-272.79,-16,503,-939,25.3,22.6,2.4,25.0,23.5,2.7,5.73,1.91,4.3,29.1
2015-08-27 01:44:00,0.0,1.93746,0.00043,383.399,0.201,0.9212,0.0185,140.000,45.000,31189.79285,1.95555,387.771,35.193,45.068,45.000,0.00,0.10,-272.74,-272.80,-16,503,-939,25.3,21.9,2.0,25.0,23.0,2.4,5.73,1.96,4.3,29.1
2015-08-27 01:45:00,0.0,1.93733,0.00035,383.323,0.120,0.9343,0.0108,139.999,45.000,31189.52817,1.95568,387.763,35.229,45.068,45.000,0.00,0.10,-272.74,-272.80,-16,503,-939,25.3,22.4,2.3,25.0,22.9,2.4,5.73,2.00,4.3,29.1
2015-08-27 01:46:00,0.0,1.93787,0.00042,383.315,0.141,0.9359,0.0123,139.998,45.000,31190.02248,1.95625,387.758,35.245,45.068,45.000,0.00,0.10,-272.73,-272.79,-16,503,-939,25.3,22.3,2.2,25.0,23.2,2.6,5.73,2.00,4.3,29.1